Location: Marengo
(51.4813°N, 109.7825°W)
Time: 15:01:44
(UTC+00:00)

Envisat - Visible Passes

Search period start: 21 March 2023 00:00
Search period end: 31 March 2023 00:00
Orbit: 763 x 765 km, 98.2° (Epoch: 21 March)

Date Brightness Start Highest point End Pass type
(mag) Time Alt. Az. Time Alt. Az. Time Alt. Az.
21 Mar 5.1 10:23:42 10° NE 10:27:47 24° E 10:31:49 10° SE visible
21 Mar 3.1 12:02:09 10° N 12:07:09 58° WNW 12:12:07 10° SSW visible
22 Mar 5.8 09:48:20 10° ENE 09:50:10 12° E 09:52:01 10° ESE visible
22 Mar 3.2 11:25:00 10° NNE 11:30:06 73° ESE 11:35:10 10° S visible
23 Mar 4.4 10:48:07 10° NNE 10:52:51 37° E 10:57:32 10° SSE visible
23 Mar 3.6 12:27:11 10° N 12:31:52 38° WNW 12:36:31 10° SW visible
24 Mar 5.4 10:11:47 10° NE 10:15:24 19° E 10:18:59 10° SE visible
24 Mar 3.0 11:49:51 10° N 11:54:56 72° WNW 11:59:59 10° SSW visible
25 Mar 3.5 11:12:46 10° NNE 11:17:49 59° E 11:22:49 10° S visible
26 Mar 4.7 10:36:02 10° NNE 10:40:30 30° E 10:44:56 10° SSE visible
26 Mar 3.3 12:14:49 10° N 12:19:40 46° WNW 12:24:31 10° SW visible
27 Mar 5.6 10:00:01 10° NE 10:02:58 15° E 10:05:55 10° ESE visible
27 Mar 3.0 11:37:34 10° NNE 11:42:42 89° WNW 11:47:46 10° SSW visible
28 Mar 3.9 11:00:35 10° NNE 11:05:30 47° E 11:10:23 10° S visible
29 Mar 5.1 10:24:00 10° NE 10:28:07 24° E 10:32:13 10° SE visible
29 Mar 3.1 12:02:29 10° N 12:07:28 57° WNW 12:12:26 10° SSW visible
30 Mar 5.7 09:48:32 10° ENE 09:50:31 12° E 09:52:30 10° ESE visible
30 Mar 3.2 11:25:18 10° NNE 11:30:25 75° ESE 11:35:30 10° S visible
